YO8RXT-3 Weather Reports


Display with metric or nautical units.
time (UTC)temp
F
wind
direction
speed
MPH
gust
MPH
rain 1hr
in
rain 24hr
in
rain mn
in
humidity
%
barometer
mb
20260905060503 72 210 6.0 0.0 0.00 0.00 0.00 53 1014.0
20260905053502 70 200 6.0 0.0 0.00 0.00 0.00 57 1014.0
20260905050502 66 2.0 0.0 0.00 0.00 0.00 64 1014.0
20260905043502 64 210 3.0 0.0 0.00 0.00 0.00 64 1014.0
20260905040502 64 230 6.0 0.0 0.00 0.00 0.00 64 1014.0
20260905033502 64 230 6.0 0.0 0.00 0.00 0.00 64 1014.0
20260905030502 66 220 5.0 0.0 0.00 0.00 0.00 56 1014.0
20260905023502 66 250 6.0 0.0 0.00 0.00 0.00 60 1014.0
20260905020502 66 2.0 0.0 0.00 0.00 0.00 60 1014.0
20260905013502 66 210 3.0 0.0 0.00 0.00 0.00 60 1014.0
20260905010502 66 240 3.0 0.0 0.00 0.00 0.00
20260905003502 66 220 2.0 0.0 0.00 0.00 0.00 60 1014.0
20260905000501 66 1.0 0.0 0.00 0.00 0.00 64 1014.0
20260904233503 68 220 3.0 0.0 0.00 0.00 0.00 60 1014.0
20260904230503 68 1.0 0.0 0.00 0.00 0.00 64 1014.0
20260904223502 68 1.0 0.0 0.00 0.00 0.00 64 1014.0
20260904220502 68 0 0.0 0.0 0.00 0.00 0.00 64 1014.0
20260904213502 68 0 0.0 0.0 0.00 0.00 0.00 64 1015.0
20260904210503 68 0 0.0 0.0 0.00 0.00 0.00 64 1014.0
20260904203502 70 240 2.0 0.0 0.00 0.00 0.00 60 1014.0
20260904200502 72 230 1.0 0.0 0.00 0.00 0.00 57 1014.0
20260904193502 72 240 2.0 0.0 0.00 0.00 0.00 53 1014.0
20260904190502 73 210 3.0 0.0 0.00 0.00 0.00 50 1015.0
20260904183502 73 220 2.0 0.0 0.00 0.00 0.00 50 1015.0
20260904180502 75 0 0.0 0.0 0.00 0.00 0.00 47 1015.0
20260904173503 75 150 1.0 0.0 0.00 0.00 0.00 47 1014.0
20260904170503 77 320 1.0 0.0 0.00 0.00 0.00 42 1014.0
20260904163502 77 330 5.0 0.0 0.00 0.00 0.00 44 1014.0
20260904160502 77 330 8.0 0.0 0.00 0.00 0.00 44 1014.0
20260904153502 79 300 3.0 0.0 0.00 0.00 0.00 39 1014.0
20260904150502 81 300 5.0 0.0 0.00 0.00 0.00 37 1014.0
20260904143502 82 280 3.0 0.0 0.00 0.00 0.00 32 1014.0
20260904140502 82 320 6.0 0.0 0.00 0.00 0.00 35 1015.0
20260904133502 82 170 6.0 0.0 0.00 0.00 0.00 32 1014.0
20260904130502 82 8.0 0.0 0.00 0.00 0.00 32 1015.0
20260904123502 82 270 7.0 0.0 0.00 0.00 0.00 30 1015.0
20260904120502 82 240 6.0 0.0 0.00 0.00 0.00 32 1015.0
20260904113503 81 6.0 0.0 0.00 0.00 0.00 37 1015.0
20260904110502 81 280 5.0 0.0 0.00 0.00 0.00 37 1016.0
20260904103502 81 200 6.0 0.0 0.00 0.00 0.00 39 1016.0
20260904100502 79 210 3.0 0.0 0.00 0.00 0.00 42 1016.0
20260904093502 77 5.0 0.0 0.00 0.00 0.00 44 1016.0
20260904090502 77 5.0 0.0 0.00 0.00 0.00 42 1017.0
20260904083502 75 230 5.0 0.0 0.00 0.00 0.00 47 1017.0
20260904080502 75 2.0 0.0 0.00 0.00 0.00 50 1017.0
20260904073504 72 3.0 0.0 0.00 0.00 0.00 57 1017.0
20260904070503 70 240 5.0 0.0 0.00 0.00 0.00 57 1017.0
20260904063502 68 210 3.0 0.0 0.00 0.00 0.00 60 1017.0